Showing default

QIANFAN-52, 62253

Orbit data source: Space-Track

QIANFAN-52, 62253 is a Chinese payload satellite in LEO that was launched on Thu, 05 Dec 2024 UTC via a CHANG ZHENG 6A launch vehicle from the Taiyaun Space Center, China (TSC). Payload-class satellites include a variety of spacecraft equipped with specific instruments for various scientific and technological missions. These include communications satellites like Starlink; space stations such as the ISS; scientific satellites like the Hubble; Earth observation satellites from companies like Planet Labs, Umbra, and HawkEye 360; GPS; miniature CubeSats for education and research; and military/defense satellites.

Loading next visibility...
Identifier
62253, 2024-232S
Orbit
LEO
Country
Flag of CNCN / PRC
Related business
Manufacturer
SECM
Mission
Operational Commercial Communications
Bus & Motor
QIANFAN, Unknown motor
Mass
267 kg wet, ~267 kg dry
Launch date (UTC)
2024-12-05 (10 months ago)
Launch vehicle
CHANG ZHENG 6A
Launch site
Taiyaun Space Center, China (TSC)
Object type
Payload
Rocket body
Debris
Shape & HBR
Box + 1 Pan, 5.0 m
Radar Cross Section
13.200 m², Large (>1 m²)

Expand to show TLE details & history
Last TLE update: 10 hours ago

TLE from 10 hours ago
0 QIANFAN-52
1 62253U 24232S   25287.92191542  .00000145  00000-0  20646-3 0  9999
2 62253  89.0013  47.0353 0015116   9.2823 350.8605 13.50978685 60006
Epoch: 2025-10-14T22:07Z
TLE epoch observation values (Epoch: 2025-10-14T22:07:33.492Z)
Latitude
0.00003°
Longitude
51.44235°
Altitude
1,060.498 km
Speed
7.327 km/s
True Right ascension
03h 08m 08s
True Declination
0° 00' 00"
Sunlit
Object was in full shadow at epoch
Visualization orbit readout
Latitude
Unknown
Longitude
Unknown
Altitude
Unknown
Speed
Unknown
Apparent Right ascension
Unknown
Apparent Declination
Unknown
Sunlit
N/A
Visualization observer readout
Local Sidereal Time
02:14:53
Azimuth
Unknown
Elevation
Unknown
Doppler factor
Unknown
Orbital elements
Apogee altitude
1,076.963 km
Perigee altitude
1,054.459 km
Semi-major axis
7,443.848 km
Eccentricity
0.00151
Inclination
89.0013°
RAAN
47.0353°
Arg. of periapsis
9.2823°
True anomaly
350.83294°
Mean anomaly
350.8605°
Eccentric anomaly
350.84672°
Mean motion
3.37946 °/min
Orbital period
106.53 mins
BSTAR
0.00020646
Loading maneuver chart data...
Computing Atmospheric mass density...
Loading historical data...
Loading historical data...
Loading historical data...
Loading historical data...
Loading historical data...
Loading historical data...
Loading historical data...

Documentation

Showing up to 5 results
|